Location: Newark
(16.3678°N, 77.8722°E)
Time: 02:14:46
(UTC+00:00)

Tiros 1 - Pass Details

Date: 12 December 2019
Orbit: 630 x 664 km, 48.4° (Epoch: 25 January)

Event Time Altitude Azimuth Distance (km) Brightness Sun altitude
Rises 22:36:12 0° 241° (WSW) 2,977 - -34.9°
Reaches altitude 10° 22:38:45 10° 251° (WSW) 2,062 - -34.3°
Maximum altitude 22:43:01 32° 315° (NW) 1,106 - -33.3°
Drops below altitude 10° 22:47:16 10° 19° (NNE) 2,046 - -32.4°
Exits shadow 22:49:31 - 28° (NNE) 2,853 10.6 -31.8°
Sets 22:49:47 0° 29° (NNE) 2,950 10.7 -31.8°
